Weather History for Mombasa, Kenya

Change the Weather History Date:

Tuesday, October 1, 2013

  Actual Average Record
Temperature  
Mean Temperature 80 °F -  
Max Temperature 85 °F 87 °F 87 °F (2008)
Min Temperature 75 °F 70 °F 69 °F (2002)
Cooling Degree Days 15    
Growing Degree Days 30 (Base 50)    
Moisture  
Dew Point 75 °F    
Average Humidity 82    
Maximum Humidity 100    
Minimum Humidity 63    
Precipitation  
Precipitation 0.00 in 0.14 in - ()
Sea Level Pressure  
Sea Level Pressure 29.94 in    
Wind  
Wind Speed 9 mph ()    
Max Wind Speed 24 mph    
Max Gust Speed -    
Visibility 8.3 miles    
Events      
Averages and records for this station are not official NWS values.
T = Trace of Precipitation, MM = Missing Value Source: Averaged Metar Reports

Daily Weather History Graph

Daily Weather History Graph

Search for Another Location

Airport:

Trip Planner

Search our weather history database for the weather conditions in past years. The results will help you decide how hot, cold, wet, or windy it might be!

Date:

Astronomy

Oct. 01, 2013 Rise Set
Actual Time 6:07 AM EAT 6:15 PM EAT
Civil Twilight 5:46 AM EAT 6:36 PM EAT
Nautical Twilight 5:22 AM EAT 7:00 PM EAT
Astronomical Twilight 4:58 AM EAT 7:24 PM EAT
Moon 3:09 AM EAT 3:25 PM EAT
Length of Visible Light 12h 49m
Length of Day
12h 08m
Waning Crescent, 14% of the Moon is Illuminated
Oct 1
Waning Crescent
Oct 5
New
Oct 12
First Quarter
Oct 19
Full
Oct 27
Last Quarter

Hourly Weather History & Observations

Time (EAT) Temp. Heat Index Dew Point Humidity Pressure Visibility Wind Dir Wind Speed Gust Speed Precip Events Conditions
12:00 AM 77.0 °F - 75.2 °F 94% 29.95 in 6.2 mi South 5.8 mph - N/A   Scattered Clouds
1:00 AM 77.0 °F - 77.0 °F 100% 29.92 in 6.2 mi SSW 5.8 mph - N/A   Mostly Cloudy
3:00 AM 78 °F - 76 °F 91% 29.91 in 19 mi SE 6.9 mph - -   Mostly Cloudy
4:00 AM 78.8 °F - 75.2 °F 89% 29.92 in 6.2 mi SE 6.9 mph - N/A   Mostly Cloudy
4:30 AM 77.0 °F - 75.2 °F 94% 29.92 in 6.2 mi South 8.1 mph - N/A   Mostly Cloudy
6:30 AM 77.0 °F - 75.2 °F 94% 29.95 in 5.0 mi South 8.1 mph - N/A   Mostly Cloudy
8:00 AM 78.8 °F - 75.2 °F 89% 29.98 in 6.2 mi SSE 10.4 mph - N/A   Mostly Cloudy
9:00 AM 81 °F - 75 °F 78% 30.00 in 19 mi SE 12.7 mph - -   Mostly Cloudy
9:00 AM 80.6 °F 86.2 °F 75.2 °F 84% 30.01 in 6.2 mi SE 12.7 mph - N/A   Mostly Cloudy
10:00 AM 80.6 °F 86.2 °F 75.2 °F 84% 30.01 in 6.2 mi SSW 11.5 mph - N/A   Mostly Cloudy
11:00 AM 84.2 °F 90.9 °F 73.4 °F 70% 29.98 in 6.2 mi SE 17.3 mph - N/A   Mostly Cloudy
12:00 PM 84.2 °F 90.9 °F 73.4 °F 70% 29.95 in 6.2 mi ESE 17.3 mph - N/A   Mostly Cloudy
1:00 PM 84.2 °F 90.9 °F 73.4 °F 70% 29.92 in 6.2 mi SE 24.2 mph - N/A   Mostly Cloudy
2:00 PM 86.0 °F 95.1 °F 75.2 °F 70% 29.92 in 6.2 mi SE 13.8 mph - N/A   Mostly Cloudy
3:00 PM 84 °F - 73 °F 63% 29.89 in 19 mi SE 18.4 mph - -   Mostly Cloudy
3:00 PM 84.2 °F 90.9 °F 73.4 °F 70% 29.89 in 6.2 mi SE 18.4 mph - N/A   Mostly Cloudy
4:00 PM 82.4 °F 88.2 °F 73.4 °F 74% 29.89 in 6.2 mi SE 12.7 mph - N/A   Mostly Cloudy
5:00 PM 82.4 °F 88.2 °F 73.4 °F 74% 29.92 in 6.2 mi SSE 9.2 mph - N/A   Scattered Clouds
6:00 PM 80.6 °F 85.4 °F 73.4 °F 79% 29.92 in 6.2 mi South 11.5 mph - N/A   Mostly Cloudy
7:00 PM 78.8 °F - 75.2 °F 89% 29.92 in 6.2 mi SSE 11.5 mph - N/A   Scattered Clouds
8:00 PM 78.8 °F - 73.4 °F 83% 29.95 in 6.2 mi South 8.1 mph - N/A   Partly Cloudy
9:00 PM 78 °F - 75 °F 88% 29.97 in 19 mi South 5.8 mph - -   Partly Cloudy
9:00 PM 78.8 °F - 75.2 °F 89% 29.98 in 6.2 mi South 5.8 mph - N/A   Scattered Clouds
10:00 PM 78.8 °F - 75.2 °F 89% 29.98 in 6.2 mi SSE 11.5 mph - N/A   Scattered Clouds